Theta_e
316 316 315 316 317 319 320 321 322 323 321 321 321 322 319 321 314 312 313 312 316 313 317 315 321 324 322 314 316 316 319 322 323 318 318 315 317 315 315 317 318 322 326 328 334
316 315 315 315 316 318 319 320 320 321 322 322 321 319 318 322 319 315 312 312 314 312 319 324 323 323 316 314 315 315 319 322 318 315 316 315 315 314 315 317 318 330 331 332 333
317 315 315 315 316 318 319 320 320 320 321 321 321 315 316 322 316 316 315 311 312 315 316 324 324 320 316 314 315 315 318 319 316 315 315 314 314 314 312 316 317 332 332 331 332
317 315 315 315 316 317 318 319 319 320 320 320 318 314 313 318 327 316 323 318 312 311 312 314 317 322 315 315 315 317 317 316 315 314 315 315 313 313 314 314 313 328 330 331 330
317 316 315 315 315 317 318 318 319 319 319 317 317 315 312 313 316 313 321 321 311 312 313 313 318 324 316 315 315 316 315 314 313 313 313 313 314 314 312 311 313 325 330 329 330
317 316 315 315 316 317 317 318 318 318 316 316 316 313 314 311 311 312 313 316 311 311 313 313 315 317 314 314 314 313 314 313 313 313 313 313 313 314 312 309 314 325 327 327 329
317 316 315 315 316 316 317 318 317 317 316 315 316 312 312 312 311 312 314 311 311 312 312 313 313 313 313 314 313 312 313 313 313 313 314 311 313 313 311 309 311 313 318 325 326
316 316 315 315 316 316 317 317 316 315 315 314 314 312 311 311 311 312 315 314 313 313 312 313 313 312 313 312 313 314 312 313 313 313 312 313 315 312 307 308 309 308 308 314 319
316 316 315 315 316 316 317 317 315 313 314 312 313 314 310 311 310 311 312 311 312 312 311 313 313 312 312 310 310 312 312 313 312 312 311 312 313 311 307 308 307 306 307 310 313
315 316 315 315 316 317 316 314 313 313 314 313 312 311 310 311 310 311 311 311 310 309 310 311 311 311 308 308 311 311 312 313 311 311 312 311 312 309 309 309 308 306 305 309 310
315 316 315 315 315 316 315 314 314 314 314 311 311 309 310 311 310 310 311 310 311 310 310 311 311 312 310 309 310 311 311 312 310 310 311 309 310 309 308 308 309 306 306 306 306
316 316 315 315 315 315 313 311 310 311 313 311 309 310 310 310 310 309 311 310 310 311 310 311 312 310 310 310 310 310 311 311 311 311 310 310 311 309 308 308 308 308 306 307 306
316 316 315 314 314 315 313 310 309 308 308 310 309 310 310 311 310 310 309 309 310 310 310 311 312 311 311 310 310 310 310 309 310 311 310 310 308 311 310 308 308 308 306 306 305
316 316 315 314 314 314 313 311 310 311 308 310 308 310 311 311 311 310 309 309 309 310 310 311 310 311 310 309 309 310 310 310 311 308 307 306 305 306 307 308 307 307 305 306 308
314 315 314 314 314 313 311 314 313 313 312 308 308 309 310 310 309 309 309 309 309 310 310 311 309 310 310 310 309 310 310 311 310 310 308 309 305 304 306 308 307 306 306 304 306
316 315 314 313 313 313 312 314 312 315 315 309 308 312 312 309 310 308 309 308 309 309 308 309 307 309 310 308 309 309 309 308 308 307 308 306 304 304 306 307 307 307 307 308 306
312 315 314 312 312 311 313 313 312 315 310 309 309 312 310 310 310 309 309 308 308 309 310 308 309 308 308 309 308 309 307 308 307 309 308 305 306 305 307 306 307 308 308 307 306
311 315 314 312 311 311 314 311 312 311 310 309 309 310 309 310 310 309 308 308 307 307 309 309 310 308 307 308 309 307 307 308 309 311 308 305 307 307 307 308 308 309 308 306 306
311 311 310 309 312 312 313 312 310 310 310 309 309 310 308 309 309 309 308 309 308 306 309 309 311 308 308 309 308 308 309 308 307 297 308 306 305 306 307 310 309 308 308 307 306
303 306 304 307 312 312 312 311 309 309 309 308 310 308 308 309 310 308 308 308 308 307 307 308 311 309 308 308 308 308 306 309 308 309 308 307 306 305 308 306 309 309 308 307 306
300 304 301 306 312 311 313 310 308 312 309 309 309 309 307 308 308 308 308 308 307 307 308 309 311 310 308 309 308 307 307 307 309 308 307 306 306 303 306 306 310 309 308 308 307
299 303 299 305 311 310 311 309 308 312 313 312 308 308 308 307 309 308 309 308 307 308 308 309 310 311 309 308 307 308 308 307 309 308 308 309 308 307 306 305 309 308 308 307 306
298 299 299 302 308 308 309 310 310 314 314 314 313 310 308 308 309 308 308 308 307 308 308 310 310 310 311 309 309 309 308 307 307 307 307 306 306 306 305 304 307 308 307 308 306
301 304 300 299 299 307 309 310 310 312 314 314 313 311 309 309 309 309 310 310 309 308 310 311 312 310 310 309 309 310 309 307 307 309 308 307 306 307 306 307 307 307 308 308 306
299 301 301 303 303 304 308 309 309 313 312 313 315 312 310 309 310 309 312 311 309 309 308 310 310 309 309 308 309 309 309 308 308 309 308 308 308 305 305 306 308 308 308 308 307
299 298 299 301 302 304 305 307 309 309 312 314 315 314 312 310 309 310 311 310 309 310 308 308 309 309 308 307 309 310 308 309 309 308 308 309 307 305 305 306 307 308 309 309 308
297 298 300 303 302 303 304 306 309 309 305 306 308 313 315 314 311 310 309 309 309 309 308 309 310 309 313 309 309 311 310 308 308 308 308 308 309 305 306 308 308 308 309 309 308
Wind_Speed
25 26 24 25 27 26 22 20 19 18 25 24 15 12 10 9 8 6 5 6 11 16 18 6 8 14 22 4 2 3 3 1 4 7 5 5 4 3 2 7 5 3 5 17 35
26 24 23 24 26 25 22 21 19 18 19 19 19 12 11 10 6 4 8 10 11 17 14 9 5 10 6 5 3 3 3 5 4 6 7 7 6 6 5 5 5 6 14 28 33
27 24 23 24 25 24 23 22 20 18 17 17 19 13 10 11 3 6 17 12 14 17 10 14 13 4 7 3 3 3 5 2 4 1 10 10 4 4 10 3 7 16 14 17 23
27 25 25 23 23 23 22 22 22 20 18 17 15 15 10 10 9 6 28 24 19 17 20 25 7 3 6 5 4 2 4 1 4 1 6 9 7 6 3 5 9 15 20 15 12
26 25 25 24 24 23 24 20 20 20 19 17 17 18 14 1 7 5 21 26 20 20 17 15 8 8 13 5 4 4 2 3 1 6 8 8 5 5 6 4 8 14 15 13 13
25 26 25 25 25 23 23 22 18 17 20 19 19 20 5 5 5 8 13 24 23 26 19 15 15 19 6 8 7 7 4 4 1 1 4 7 3 4 4 6 10 12 11 10 15
25 27 27 25 25 23 23 22 21 16 18 20 21 24 3 9 3 8 12 24 27 27 10 19 14 8 3 3 7 7 6 3 1 3 4 8 3 4 5 7 10 9 9 10 15
25 28 28 26 25 24 23 22 20 20 16 20 22 13 6 8 14 8 14 14 17 22 9 22 11 6 3 2 3 6 5 5 4 5 2 2 5 5 8 9 9 9 8 8 8
27 29 29 27 26 25 23 21 22 19 15 19 15 7 6 6 6 12 16 14 18 14 7 13 10 5 3 5 3 1 5 4 2 3 3 1 3 3 7 7 8 8 9 8 8
32 30 31 30 28 27 25 24 23 21 16 14 4 2 6 6 9 18 16 16 6 7 4 4 4 5 3 4 8 5 3 3 5 6 2 3 3 5 5 7 9 8 8 8 8
36 33 32 32 32 31 32 28 8 4 10 8 9 5 5 9 14 10 18 15 6 3 5 5 5 10 9 7 5 5 5 6 1 4 4 8 5 7 8 6 7 6 9 9 9
36 37 37 35 34 34 35 6 8 12 6 15 6 4 4 6 4 5 15 7 6 6 5 4 13 9 9 9 9 5 6 4 2 1 3 6 9 6 7 7 8 9 8 8 6
40 42 41 38 35 35 26 7 19 29 6 4 5 8 5 5 5 10 13 6 7 7 7 9 6 7 7 6 8 6 6 6 7 4 1 3 6 5 7 5 5 4 6 6 10
38 42 43 42 30 28 21 17 18 9 4 5 6 6 5 5 4 5 14 5 5 14 7 5 4 12 7 8 9 7 5 7 11 5 4 5 5 6 7 7 7 7 7 7 7
40 41 45 45 24 17 31 15 8 2 6 11 6 10 8 7 9 4 4 1 8 7 6 6 7 7 6 8 6 5 6 8 4 4 5 3 2 7 7 6 9 9 8 8 8
39 49 47 32 23 32 16 15 7 4 6 6 7 9 10 4 3 5 5 1 3 6 5 2 3 4 7 3 6 9 7 8 5 3 1 4 5 5 5 9 6 5 7 9 9
19 52 49 27 15 39 20 8 4 5 4 8 6 9 12 6 5 5 11 6 7 8 5 2 1 1 3 8 5 6 5 2 2 1 5 2 2 7 6 7 8 11 10 9 9
10 50 37 20 31 42 23 7 5 11 7 5 8 14 9 8 2 8 9 7 6 5 6 7 4 7 3 7 9 7 6 5 6 4 4 2 7 6 3 6 5 10 10 8 8
19 24 24 11 41 39 11 14 10 9 6 8 11 18 5 6 8 6 11 17 9 9 6 6 2 2 3 1 10 6 5 6 7 3 3 4 5 7 2 2 6 10 10 9 8
3 10 6 7 31 25 14 17 4 9 9 11 7 7 7 15 6 7 14 11 6 9 3 6 5 2 2 1 3 6 8 3 2 5 4 4 4 5 6 10 7 10 11 9 8
10 4 7 10 27 13 18 18 9 3 13 7 7 6 7 10 7 9 15 4 14 12 7 2 4 1 2 5 8 3 4 3 5 5 5 1 6 8 13 16 17 14 13 13 11
2 3 7 9 7 8 13 7 3 4 4 3 6 5 12 11 4 9 12 6 17 16 9 2 5 4 5 2 2 0 5 5 5 5 1 3 5 3 6 11 15 14 12 10 12
2 2 9 3 6 10 5 17 1 4 4 3 3 3 3 10 6 6 7 2 4 14 14 8 2 4 4 3 1 5 4 6 4 4 6 5 6 2 4 7 10 15 11 13 12
2 2 2 3 2 7 5 23 8 1 3 3 4 4 5 8 2 9 5 0 4 7 9 9 3 7 10 6 7 7 7 6 6 3 4 6 9 5 5 9 9 11 13 14 14
2 1 1 2 2 4 8 12 17 4 3 3 2 4 6 5 6 6 5 3 5 2 6 6 7 4 2 4 4 5 15 12 8 19 8 22 12 7 9 10 15 13 12 15 16
2 3 2 2 2 6 4 6 25 3 4 3 4 7 4 5 7 7 8 5 5 1 4 1 4 6 3 6 5 4 8 16 20 20 13 18 15 8 7 7 9 15 17 18 18
1 1 2 5 1 3 3 3 14 9 1 5 4 2 4 2 4 2 4 7 10 9 6 7 5 4 10 1 6 3 15 14 12 17 20 18 26 5 8 14 16 15 18 21 21
Wind_Direction
200 197 203 208 198 197 195 199 198 196 194 205 206 200 194 176 162 162 173 160 173 157 169 217 306 320 328 292 295 24 77 288 250 149 179 169 120 22 39 94 51 41 148 153 155
200 199 201 209 203 197 189 195 200 196 195 206 204 200 199 187 164 218 156 159 179 169 156 138 112 327 329 304 299 103 134 223 279 148 159 146 127 136 94 94 49 62 94 139 154
199 196 199 202 205 196 189 185 192 199 205 204 191 188 190 191 29 232 194 186 177 185 140 128 119 61 296 302 257 205 191 228 349 30 138 141 123 132 127 162 182 149 142 146 153
200 194 196 197 201 195 192 180 187 194 206 202 181 182 161 151 201 233 201 218 206 197 155 117 94 126 259 247 251 229 255 210 169 1 116 141 149 126 158 187 171 162 153 150 157
201 195 192 195 193 190 185 187 185 193 198 193 179 171 142 137 236 179 193 217 202 203 186 148 147 195 238 232 263 208 161 47 57 103 125 110 118 141 134 138 122 139 148 157 163
201 196 191 192 187 185 183 183 183 194 183 182 178 164 154 210 206 247 196 199 192 190 203 165 178 203 204 212 181 206 151 130 280 106 89 120 112 117 177 148 113 143 161 166 173
201 197 189 190 186 181 184 183 176 183 184 172 176 173 266 233 198 189 180 191 191 192 180 192 196 185 209 255 217 147 106 95 168 267 123 120 65 202 164 159 141 153 177 179 186
199 195 188 187 183 179 183 176 166 165 186 169 175 168 239 230 249 190 172 172 191 193 226 197 187 162 180 261 83 136 92 134 237 178 279 112 198 225 176 153 170 170 200 189 203
196 195 186 181 179 176 174 166 152 152 173 158 157 169 255 167 175 195 179 162 164 208 208 165 140 171 131 134 44 278 173 152 182 213 164 170 175 192 180 170 187 188 193 196 184
197 194 187 177 175 169 163 148 132 136 149 160 175 161 219 207 173 172 174 164 145 146 82 126 117 151 132 124 193 169 159 152 168 211 147 174 142 189 205 181 204 195 189 190 191
191 190 186 179 171 167 153 125 109 142 191 197 177 229 113 148 142 164 169 161 119 116 159 193 146 198 174 161 192 166 189 170 234 193 133 195 173 206 205 211 197 191 164 182 190
190 186 185 177 172 169 157 182 167 145 137 261 254 211 125 125 114 172 164 145 143 162 171 142 215 190 161 176 218 181 207 152 20 27 118 177 236 222 194 217 196 182 194 186 152
184 184 181 177 172 169 178 169 153 142 138 224 202 187 187 156 161 188 159 168 157 175 194 167 195 180 165 181 198 192 178 183 163 161 57 119 298 205 236 197 174 168 139 151 172
191 187 179 173 165 168 189 166 184 205 118 192 200 201 142 172 156 167 193 156 162 191 168 179 215 174 164 183 158 205 182 150 138 127 199 153 255 239 208 188 194 190 171 174 145
187 183 178 171 154 170 192 195 218 98 150 173 172 159 154 170 139 213 183 127 171 166 147 203 170 144 172 184 159 195 140 142 136 115 110 210 125 264 133 198 217 209 196 196 181
178 182 176 166 152 176 183 179 141 108 222 175 149 162 149 170 146 138 158 159 164 134 59 135 264 145 173 79 142 145 90 48 63 81 269 228 162 264 190 200 204 191 189 166 150
186 175 174 165 155 168 161 150 99 193 202 171 184 167 161 151 129 178 170 180 159 139 140 86 342 264 163 83 12 111 113 57 33 354 224 358 197 252 236 223 199 181 173 166 145
204 180 168 174 157 168 166 132 176 193 205 136 145 149 167 131 144 175 139 188 240 136 139 154 207 184 199 166 172 167 154 146 173 189 217 342 225 240 237 300 178 160 158 153 153
137 145 138 131 158 165 157 182 194 171 174 139 118 155 166 178 137 146 191 196 187 179 153 146 195 358 55 45 149 206 181 159 102 23 72 217 285 305 264 102 149 153 154 155 148
340 113 68 117 161 167 171 201 175 167 141 134 147 182 163 172 137 168 174 201 202 180 191 184 115 10 307 99 12 165 153 98 9 137 230 267 269 233 232 210 181 167 164 159 153
15 70 14 128 162 169 198 191 173 59 144 137 154 154 168 177 151 175 183 237 188 199 158 136 100 289 153 209 166 149 182 171 130 153 168 153 255 217 207 193 187 181 174 168 160
80 108 340 160 157 189 198 180 259 139 72 127 134 129 169 165 147 180 192 192 192 171 172 146 113 139 214 228 249 8 204 154 159 220 223 148 265 193 217 196 177 178 174 161 160
66 73 349 341 159 179 166 209 312 146 150 125 122 120 140 164 171 166 172 232 164 169 170 178 136 90 14 345 293 206 200 204 110 80 198 150 254 265 278 162 175 169 167 164 155
115 106 40 18 72 165 146 192 209 135 96 132 120 102 118 159 154 180 152 338 347 176 144 117 133 170 190 190 141 188 193 198 165 127 190 224 243 240 199 177 175 173 167 163 162
49 45 2 146 128 119 169 183 204 198 110 41 91 174 152 145 156 170 133 124 21 349 133 125 180 177 273 146 151 166 186 176 194 225 182 239 234 227 210 192 191 175 162 164 172
121 152 118 63 104 117 121 199 203 180 155 218 145 190 157 148 187 178 130 163 176 329 143 78 229 141 256 209 218 196 205 192 204 225 229 251 272 188 190 155 159 177 174 181 184
87 20 90 128 156 94 136 144 200 155 87 74 56 21 171 71 81 4 131 143 153 152 154 147 135 113 233 116 96 310 211 198 207 218 216 233 240 135 198 195 188 183 186 189 192